Tracking 33068 objects as of 25-Jan-2026
HD Live streaming from Space Station
objects crossing your sky now

STARLINK-6113

Track STARLINK-6113 now!
10-day predictions
STARLINK-6113 is classified as:


NORAD ID: 56113
Int'l Code: 2023-046W
Perigee: 565.3 km
Apogee: 567.1 km
Inclination: 43.0 °
Period: 95.8 minutes
Semi major axis: 6937 km
RCS: Unknown
Launch date: March 29, 2023
Source: United States (US)
Launch site: AIR FORCE EASTERN TEST RANGE (AFETR)
Your satellite tracking list
Your tracking list is empty




NASA's NSSDC Master Catalog

Two Line Element Set (TLE):
1 56113U 23046W   26023.73001906  .00002677  00000-0  21316-3 0  9998
2 56113  43.0047  42.8397 0001325 257.1908 102.8787 15.02534293155303
Source of the keplerian elements: AFSPC